Reflectivity
-20 -20 -20 -20 -20 -20 -20 -20 -20 -20 -20 -20 -20 -20 -20 -20 -20 -20 -20 -20 -20 -20 -20 -20 -20 -20 -20 -20 -20 -20 -20 -20
-20 -20 -20 -20 -20 -20 -20 -20 -20 -20 -20 -20 -20 -20 -20 -20 -20 -20 -20 -20 -20 -20 -20 -20 -20 -20 -20 -20 -20 -20 -20 -20
-20 -20 -20 -20 -20 -20 -20 -20 -20 -20 -20 -20 -20 -20 -20 -20 -20 -20 -20 -20 -20 -20 -20 -20 -20 -20 -20 -20 -20 -20 -20 -20
-20 -20 -20 -20 -20 -20 -20 -20 -20 -20 -20 -20 -20 -20 -20 -20 -20 -20 -20 -20 -20 -20 -20 -20 -20 -20 -20 -20 -20 -20 -20 -20
-20 -20 -20 -20 -20 -20 -20 -20 -20 -20 -20 -20 -20 -20 -20 -20 -20 -20 -20 -20 -20 -20 -20 -20 -20 -20 -20 -20 -20 -20 -20 -20
-20 -20 -20 -20 -20 -20 -20 -20 -20 -20 -20 -20 -20 -20 -20 -20 -20 -20 -20 -20 -20 -20 -20 -20 -20 -20 -20 -20 -20 -20 -20 -20
-20 -20 -20 -20 -20 -20 -20 -20 -20 -20 -20 -20 -20 -20 -20 -20 -20 -20 -20 -20 -20 -20 -20 -20 -20 -20 -20 -20 -20 -20 -20 -20
-20 -20 -20 -20 -20 -20 -20 -20 -20 -20 -20 -20 -20 -20 -20 -20 -20 -20 -20 -20 -20 -20 -20 -20 -20 -20 -20 -20 -20 -20 -20 -20
-20 -20 -20 -20 -20 -20 -20 -20 -20 -20 -20 -20 -20 -20 -20 -20 -20 -20 -20 -20 -20 -20 -20 -20 -20 -20 -20 -20 -20 -20 -20 -20
-20 -20 -20 -20 -20 -20 -20 -20 -20 -20 -20 -20 -20 -20 -20 -20 -20 -20 -20 -20 -20 -20 -20 -20 -20 -20 -20 -20 -20 -20 -20 -20
-20 -20 -20 -20 -20 -20 -20 -20 -20 -20 -20 -20 -20 -20 -20 -20 -20 -20 -20 -20 -20 -20 -20 -20 -20 -20 -20 -20 -20 -20 -20 -20
-20 -20 -20 -13 -20 -20 -20 -20 -20 -20 -20 -20 -20 -20 -20 -20 -20 -20 -20 -20 -20 -20 -20 -20 -20 -20 -20 -20 -20 -20 -20 -20
-20 -20 -8 -7 -11 -20 -20 -20 -20 -20 -20 -20 -20 -20 -20 -20 -20 -20 -20 -20 -20 -20 -20 -20 -20 -20 -20 -20 -20 -20 -20 -20
-20 -20 -20 -20 -20 -20 -20 -20 -20 -20 -20 -20 -20 -20 -20 -20 -20 -20 -20 -20 -20 -20 -20 -20 -20 -20 -20 -20 -20 -20 -20 -20
-20 -14 -20 -20 -20 -20 -20 -20 -20 -20 -1 -20 -20 -20 -20 -20 -20 -20 -20 -20 -20 -20 -20 -20 -20 -20 -20 -20 -20 -20 -20 -20
-20 -20 -20 -20 -20 -20 -20 -20 -20 -20 -20 -20 -20 -20 -20 -20 -20 -20 -20 -20 -20 -20 -20 -20 -20 -20 -20 -20 -20 -20 -20 -20
-20 -20 -20 -20 -20 -20 -20 -20 -20 -20 -0 -20 -20 -20 -20 -20 -20 -20 -20 -20 -20 -20 -20 -20 -6 -3 -20 -20 -20 -20 -20 -20
-20 -20 -20 -20 -20 -20 -20 -20 -20 -20 -20 -20 -19 -20 -20 -20 -20 -20 -20 -20 -20 -20 -20 -20 -20 -20 -20 -20 -20 -20 -20 -6
-20 -20 -20 -20 -20 -20 -20 -20 -20 -20 -20 -17 -19 -20 -20 -20 -20 -20 -20 -20 -20 -20 -20 -20 -20 -20 -20 -20 -20 -1 -11 -18
Wind_Speed
14 13 11 11 10 9 9 8 9 8 7 6 6 5 5 5 6 6 8 7 8 6 6 7 6 6 6 8 9 8 7 8
14 13 12 11 10 10 9 10 10 7 6 5 4 4 4 4 5 7 8 8 8 7 5 6 6 7 8 9 7 7 6 10
15 15 14 12 12 10 10 10 10 7 5 3 3 4 4 5 5 7 8 8 8 7 7 6 8 6 8 9 9 7 5 8
17 16 15 13 12 11 10 9 9 6 6 5 5 5 5 4 4 5 6 7 8 7 7 7 6 6 6 8 9 10 7 6
16 16 15 13 11 10 9 8 8 7 8 6 6 2 3 4 4 5 5 7 8 7 7 7 7 6 7 7 8 7 7 6
16 16 15 14 12 11 9 9 8 8 7 6 5 3 5 5 4 6 6 6 7 7 7 7 7 6 7 7 7 8 6 6
14 15 16 13 12 11 10 10 9 8 7 6 5 6 5 5 4 4 4 4 4 7 7 7 7 7 7 6 7 8 8 8
13 16 17 15 14 12 11 11 10 9 8 7 7 7 6 6 5 4 4 4 4 6 6 7 6 7 6 6 7 8 8 7
14 17 16 16 15 14 12 12 11 10 9 8 7 8 5 4 5 4 4 4 5 6 7 7 7 7 6 7 6 6 7 7
14 16 16 15 15 14 13 12 11 10 9 8 8 7 6 6 7 6 5 6 5 7 6 6 6 7 7 8 7 7 7 7
12 14 16 14 14 13 12 11 11 11 11 9 8 8 7 7 6 7 7 7 7 6 6 6 7 8 8 7 6 7 7 6
11 6 12 14 14 14 14 12 12 12 11 9 9 8 8 8 7 6 7 7 6 6 6 6 7 8 7 8 8 7 8 8
11 13 12 7 8 14 14 13 13 12 11 10 10 10 9 9 8 7 7 8 6 6 6 7 7 7 8 8 8 8 8 8
8 13 15 16 12 10 12 14 13 12 12 11 11 10 9 9 9 8 8 8 7 7 6 6 7 6 7 7 7 7 8 8
12 10 12 12 16 13 14 14 9 13 13 12 11 11 10 10 9 9 8 7 7 7 6 6 6 6 6 7 6 7 7 8
15 16 17 14 13 15 16 15 15 14 13 13 12 12 11 11 10 10 8 7 7 7 6 6 5 5 5 6 6 7 7 7
14 16 17 19 20 19 18 17 16 16 15 14 13 13 12 12 11 10 9 8 8 8 7 6 5 5 7 7 5 5 7 7
10 14 16 17 19 20 20 18 17 16 15 14 15 14 14 13 12 12 11 10 10 9 8 7 6 6 8 7 4 5 5 5
8 10 12 15 17 19 18 18 17 16 15 16 16 15 14 14 13 13 11 10 10 9 8 8 8 6 8 8 5 4 4 4
Wind_Direction
170 168 158 152 144 144 141 149 144 137 129 124 112 106 89 72 63 57 36 47 32 17 38 23 9 20 20 7 352 351 349 346
170 168 161 152 147 149 154 156 153 159 158 147 144 108 102 93 74 56 52 37 33 24 27 26 11 27 18 11 353 349 0 354
174 169 166 167 157 158 161 161 164 177 158 121 101 117 84 78 78 64 49 46 35 35 20 29 20 19 23 16 11 342 10 17
177 176 173 166 166 166 170 164 166 169 125 136 123 122 144 145 113 79 54 48 43 33 36 32 31 26 25 17 9 12 357 24
180 178 176 174 164 163 161 158 164 168 178 163 183 197 157 82 96 75 76 51 47 38 41 37 37 37 29 28 18 10 359 19
183 181 178 176 156 160 152 157 154 151 165 178 180 160 129 129 114 107 85 79 55 49 41 44 42 38 40 34 28 25 29 26
180 178 182 165 164 157 158 157 149 152 159 160 169 154 144 142 132 124 99 83 74 55 52 47 42 42 35 36 41 39 36 34
179 181 180 170 168 165 164 161 149 147 142 144 147 141 140 133 145 99 96 92 80 65 54 48 48 45 50 47 54 47 42 37
186 187 182 177 173 173 170 164 153 151 147 147 143 147 146 126 108 109 94 85 77 71 65 64 67 56 56 58 60 52 47 47
187 187 185 178 179 178 175 164 156 154 151 154 151 144 136 119 119 119 108 105 99 84 83 83 73 68 62 63 58 60 58 50
190 188 186 182 182 172 171 170 163 158 162 159 151 138 133 131 127 114 109 107 104 110 102 90 83 71 68 67 72 58 61 52
198 197 179 186 180 176 175 172 165 168 166 160 152 144 143 139 125 125 114 113 116 114 99 90 82 78 73 75 70 65 61 54
205 187 181 183 171 179 175 171 173 172 167 163 156 149 150 145 129 121 132 121 124 115 107 100 89 80 74 70 67 59 54 50
203 190 193 185 177 177 172 175 177 170 167 165 161 155 158 145 131 137 133 132 127 117 115 100 88 78 79 75 70 65 59 52
197 194 192 193 186 175 173 178 150 172 169 171 161 163 159 150 140 134 130 135 127 104 96 97 96 95 88 81 66 68 67 60
205 205 197 186 181 182 180 179 168 176 172 171 167 160 160 151 144 134 134 140 133 127 122 112 95 90 64 66 73 69 54 61
228 210 203 194 191 188 184 181 176 178 179 172 174 163 162 158 151 146 143 145 137 127 121 120 119 103 98 78 67 68 55 55
230 212 204 199 195 191 185 181 177 182 179 175 174 171 167 162 160 159 161 157 147 140 143 133 131 127 124 108 88 85 85 72
233 206 197 195 192 189 183 179 178 179 177 181 175 173 170 168 169 171 167 163 161 159 155 156 147 135 145 141 145 117 101 83